CAPE
2214 2108 2110 2164 2185 2174 2352 2568 2467 2252 2266 2408 2394 2118 1638 1323 1244 1341 1389 1611 1669 1595 1808 1696 1357 1118 834 592 386 413 492 734 732 798 890 867 908 1431 2170 2882 2444 1824 2099 2263 2145 2031 1798 1666 1847 1617 1777 2024 1915 1829 2053 1560 1705 1892 1783 1786 1485 1412 1282 1208 1199 1112 1036 1065 1322 1544 1606 1610 1573 1546 1530 1544 1469 1486 1470 1287 1462 1396 1342 1392 1338
2132 2011 1994 2094 2149 2082 2125 2268 2246 2260 2305 2418 2411 2052 1310 944 1168 1499 1425 1247 1379 1330 1889 1482 1017 740 392 354 203 90 85 220 423 563 695 862 1082 1636 2315 3121 2782 2337 2133 2031 1936 1782 1917 1688 1668 1521 1492 1757 1888 1668 1588 1667 1833 1819 1913 1756 1788 1721 1532 1249 1311 1344 1140 1127 1274 1294 1454 1656 1649 1658 1592 1558 1607 1620 1609 1548 1532 1566 1610 1529 1393
2098 1926 1885 2000 2114 2050 1914 2002 2104 2225 2347 2416 2126 1604 1004 1064 1306 1514 1709 1228 1069 1330 1321 1111 1070 788 504 37 34 6 5 24 278 411 670 1010 1299 1674 2105 3139 3353 2358 2229 2033 2028 2172 1954 1878 1646 1612 1405 1442 1747 1834 1666 1765 1965 1531 1722 2019 1944 1810 1772 1767 1726 1733 1755 1710 1499 1564 1740 1630 1522 1697 1766 1787 1750 1716 1772 1784 1743 1648 1572 1471 1401
2094 1971 1878 1939 2048 1993 1775 1848 1942 2044 2132 1998 1386 1367 1778 1590 1708 1532 1334 1243 1214 1241 1260 1328 1027 580 304 77 58 31 6 0 166 504 902 1239 1433 1550 1702 2538 3167 2809 2252 2456 1887 2230 1789 1637 1607 1626 1538 1651 1491 1508 1781 1820 1827 1471 1536 1544 1568 1868 1914 1910 1866 1882 1950 1908 1888 1759 1616 1394 1564 1662 1685 1742 1773 1830 1887 1868 1888 1813 1717 1680 1617
2036 1981 2138 2008 2042 1952 1664 1782 1821 1898 1949 1630 1350 1678 2326 2287 1872 2034 1710 1525 1405 1370 1392 951 558 318 222 163 140 54 11 2 24 515 1140 1418 1431 1420 1582 2406 3542 3332 2401 2169 1955 1129 1850 1714 1934 1878 1890 1687 1858 1704 1684 1962 1991 1816 1730 1606 1580 1448 1924 2028 2164 2222 2272 2027 1946 2006 1978 2131 1956 1551 1759 1830 1790 1822 1844 1854 1818 1808 1778 1748 1850
2042 1982 1938 1970 1990 1950 1717 1621 1715 1778 1691 1673 1621 1940 2214 2255 1900 1696 1990 1933 1389 1188 1063 650 388 229 204 231 84 230 12 0 9 404 1064 1408 1410 1444 1801 2501 3164 3320 3486 2760 2123 1522 1852 2082 1992 1916 1936 2162 2055 2103 1852 1856 1980 1793 1576 1569 1391 1378 1800 2090 2089 2004 2093 2033 1950 1874 1808 1882 1980 2004 2087 2030 2050 1964 1882 1937 2018 1974 1960 1774 1892
2078 2008 1940 1884 1882 1886 1742 1570 1658 1694 1644 1680 1702 1844 2066 2230 2013 1683 1360 1116 1087 1089 796 562 364 204 121 412 205 1002 10 16 460 1194 1376 1433 1456 1586 1992 2481 2628 2938 3119 2704 2205 1380 1672 1866 1906 1838 1998 2246 2315 2177 1675 1843 1736 1812 1558 1591 1390 1440 1718 1690 1910 1912 1880 1925 1862 1727 1765 1792 1746 1738 1844 2063 2113 2106 2138 2069 1978 2023 1965 2139 2160
2065 2019 1934 1841 1827 1872 1792 1526 1610 1624 1670 1671 1894 1926 1829 2012 2018 1763 1206 937 1232 961 826 624 370 242 121 66 99 955 5 14 286 953 1304 1434 1651 1707 1952 2280 2443 2657 3110 2804 2533 2110 1978 2266 2180 2188 2286 2007 1932 1991 1934 1764 1517 1571 1507 1596 1618 1618 1644 1432 1830 1949 1908 1990 1857 1746 1438 1523 1628 1602 1749 1830 1900 1874 1910 1902 1943 1962 2003 1912 2006
2045 2010 1920 1856 1845 1875 1832 1513 1606 1657 1666 1756 1909 1916 1784 1890 2113 1686 1016 760 737 778 745 640 358 136 77 18 75 352 17 32 39 350 920 1400 1561 1653 1715 1839 2292 3049 3209 2727 2772 2807 2502 2415 2380 2358 2024 1799 1872 1809 1796 1656 1582 1594 1529 1559 1442 1590 1701 1669 1727 1685 1754 1833 1660 1573 1480 1678 1608 1746 1753 1730 1750 1734 1636 1663 1636 1668 1719 1762 1784
2046 2025 1971 1915 1880 1879 1826 1560 1522 1596 1728 1857 1909 1915 1927 2042 2256 1616 1089 908 742 591 639 621 550 227 56 12 26 20 30 536 1695 1810 517 902 1248 1577 1620 1520 2016 2412 2743 2686 2676 2513 2676 2600 2466 2390 2347 2047 1868 1981 1744 1688 1429 1591 1562 1658 1504 1472 1606 1621 1455 1542 1475 1494 1588 1624 1566 1464 1590 1746 1678 1768 1949 1874 1748 1546 1575 1585 1412 1476 1612
2052 2032 2017 1973 1937 1910 1838 1392 1458 1459 1688 1880 1942 2016 2151 2246 2081 1309 1152 1070 873 614 476 391 352 332 357 132 25 25 141 1097 206 82 313 575 952 1567 1216 1373 1551 1940 2101 2327 2478 2487 2533 2533 2664 2574 2726 2167 2099 2134 1869 1763 1600 1409 1407 1425 1676 1563 1769 1410 1273 1311 1294 1277 1408 1483 1674 1801 1731 1610 1689 1755 1922 1894 1763 1428 1577 1606 1643 1506 1697
2044 2023 2024 1996 1970 1907 1804 1537 1545 1657 1725 1750 1766 1950 2126 2080 1941 1588 942 702 789 547 425 297 110 0 429 34 21 225 451 186 50 109 466 485 1210 1318 1172 1282 1581 1709 1763 1993 2086 2320 2399 2318 2508 2454 2515 2492 2357 1746 1968 1721 1599 1552 1704 1644 1354 1390 1405 1345 1142 1418 1563 1567 1477 1540 1457 1707 1737 1636 1735 1789 1857 1891 1779 1621 1527 1629 1585 1718 1844
2273 2056 2037 2095 1981 1908 1697 1679 1690 1838 1905 1856 1553 1749 2021 2040 1910 1682 842 731 580 39 0 0 0 0 0 0 1 578 2110 264 94 28 209 342 1124 1105 1466 1486 1487 1697 1658 1728 1935 2002 2080 2160 2241 2210 2303 2304 2614 2359 2004 1922 1578 1648 1765 1538 1402 1506 1382 1204 1237 1278 1253 1272 1531 1618 1372 1440 1449 1494 1596 1814 1794 1740 1685 1484 1371 1584 1638 1673 1578
2425 2119 2040 1974 1910 1686 1764 1776 1818 2005 2027 1961 1467 1624 1775 1843 1771 1374 850 662 475 29 27 0 0 0 0 0 2 21 635 28 58 72 49 377 612 924 1213 1361 1404 1515 1607 1668 1756 1895 2008 1916 1990 2126 2061 2073 2368 2602 2464 2243 2067 1810 1582 1424 1769 1765 1614 1672 1534 1318 1236 1047 1381 1613 1708 1501 1506 1465 1721 1756 1641 1645 1624 1604 1584 1475 1474 1530 1440
2219 2475 2235 1982 1930 1736 1811 1880 1939 2155 2149 2043 1579 1458 1574 1679 1648 1360 901 670 428 358 154 0 0 0 0 0 0 0 92 0 0 0 3 292 558 696 904 1158 1195 1377 1399 1411 1409 1453 1468 1579 1702 1801 1942 1971 1970 2019 2226 2255 2094 2048 1644 1622 1759 1810 1717 1590 1649 1454 1393 1324 1111 1341 1506 1572 1444 1382 1501 1658 1603 1456 1490 1608 1590 1453 1438 1384 1472
2154 2460 2480 2229 2096 1830 1854 1926 2159 2239 2245 2122 1784 1455 1462 1548 1512 1333 984 694 1 43 808 0 0 0 0 0 0 0 0 0 0 0 57 371 599 566 610 750 1001 1220 1255 1241 1112 1154 1284 1291 1411 1455 1626 1644 1576 1806 1922 2119 2294 2268 2030 2034 1913 1755 1592 1573 1712 1688 1274 1386 1636 1663 1824 1851 1912 1942 1898 1906 1949 1957 1951 1826 1706 1541 1481 1392 1432
2188 2376 2620 2412 2260 2118 2096 2174 2272 2321 2296 2160 1974 1679 1583 1473 1419 1316 987 625 0 0 218 0 0 4 0 0 0 0 0 0 0 0 28 288 444 396 637 546 759 1181 1166 817 834 1114 1074 1073 1068 1040 1161 1319 1378 1562 1822 2092 1934 2141 1806 1629 1570 1552 1668 1722 1668 1472 1348 1238 1226 1195 1186 1107 1234 1007 1345 1360 1370 1468 1646 1768 1818 1728 1468 1445 1677
2170 2290 2506 2524 2409 2379 2355 2340 2379 2385 2322 2176 2068 1865 1798 1708 1578 1361 922 540 0 0 28 1236 122 350 2 0 0 0 1 0 0 0 0 94 256 254 192 286 501 735 631 562 497 651 815 917 947 1036 1090 1179 1275 1437 1454 1405 1854 1154 448 809 789 978 1009 1262 1412 1326 1129 942 792 928 932 854 730 666 670 665 525 694 968 1192 1406 1643 1690 1582 1616
2233 2252 2359 2533 2456 2458 2446 2427 2432 2397 2282 2145 2073 1965 1913 1884 1774 1389 840 229 0 30 43 69 0 26 6 10 297 234 1 6 0 0 0 0 116 192 146 138 262 391 450 402 380 356 438 562 666 763 974 1127 1176 1390 1366 1330 1644 1553 1432 1163 976 493 623 426 792 606 599 453 150 168 234 322 459 563 482 364 358 279 300 653 771 953 1122 1263 1315
2254 2224 2260 2380 2445 2474 2480 2464 2456 2407 2251 2081 1995 1976 1956 1975 1852 1308 721 103 7 42 38 5 62 8 852 106 397 83 0 0 0 0 0 0 0 0 63 129 193 234 284 314 270 211 156 150 237 266 398 968 1262 1296 1351 1252 1210 1412 1788 1234 345 742 619 516 112 246 289 206 187 32 62 220 264 296 349 422 337 398 342 268 385 387 404 455 496
2195 2226 2268 2309 2523 2438 2462 2461 2422 2377 2218 2059 2020 2011 2009 2035 1847 1174 505 102 12 18 32 41 0 6 21 8 0 0 0 4 0 0 0 0 0 0 0 0 0 109 244 251 220 112 47 37 61 424 216 427 954 1284 1266 1310 1246 1137 1268 1143 990 722 882 792 576 208 39 69 114 119 120 81 88 92 98 123 172 207 198 186 240 287 277 268 247
2190 2221 2243 2280 2341 2360 2383 2392 2348 2269 2153 2057 2046 2084 2068 2054 1946 1290 268 72 28 110 27 19 4 1 12 20 13 4 1 0 0 0 0 0 0 0 0 0 0 0 72 246 238 115 2 7 18 30 68 138 489 1032 1219 1261 1280 1169 1049 1276 1416 1191 1020 1022 694 178 64 204 204 147 67 50 40 54 40 56 98 152 142 153 188 238 297 221 150
2233 2216 2217 2229 2240 2278 2266 2271 2244 2190 2135 2096 2066 2024 1999 2050 2002 1132 114 72 31 36 253 100 10 7 3 11 10 16 22 14 0 0 0 0 0 0 0 0 0 0 0 28 200 81 0 0 2 6 20 25 59 423 865 1090 1209 1310 1260 1230 1273 1394 1416 1129 1208 741 290 322 242 222 238 180 52 12 2 0 0 6 79 139 162 278 255 187 161
2317 2283 2236 2206 2205 2216 2198 2185 2174 2168 2144 2102 2041 1942 1926 2069 2024 783 112 80 33 75 46 26 0 2 4 0 0 0 0 3 0 0 0 0 0 0 0 0 0 0 0 0 10 0 0 0 0 0 2 6 19 24 140 635 926 1258 1618 1652 1536 1298 1328 1313 1119 1332 674 271 227 262 176 156 99 84 60 29 8 4 0 1 19 39 34 11 1
2357 2332 2288 2267 2233 2164 2149 2148 2180 2199 2169 2115 2000 1868 1896 2078 2007 707 105 99 56 39 10 1 0 0 14 0 0 0 0 0 0 0 0 0 0 0 0 0 0 0 0 0 2 0 0 0 0 0 0 1 8 24 42 88 229 478 1280 1726 1509 1283 1106 1035 923 770 718 574 284 224 244 437 347 257 215 269 39 4 0 0 0 0 0 0 0
2369 2424 2382 2283 2260 2168 2118 2162 2168 2119 2163 2128 1957 1860 1910 2061 1878 578 85 96 48 15 10 0 0 3 2 3 2 4 2 0 0 0 0 0 0 0 0 0 0 0 0 0 0 0 0 0 0 0 0 0 3 12 22 12 28 123 522 996 1108 996 946 824 774 665 644 664 570 384 284 514 427 563 467 327 194 111 148 120 76 17 2 0 0
2113 2360 2334 2213 2267 2239 2194 2160 2186 2193 2220 2114 1946 1962 2088 2104 1608 421 86 48 26 12 1 0 0 1 0 2 6 6 10 10 0 0 0 0 0 0 0 0 0 0 0 0 0 0 0 0 0 1 0 33 12 28 38 6 4 26 158 572 1159 854 581 470 556 606 506 414 389 396 353 534 636 536 425 490 518 464 296 298 158 131 113 67 24
1900 2204 2280 2274 2246 2274 2250 2238 2250 2252 2241 2104 2059 2157 2232 2057 1222 352 65 48 15 0 0 0 0 0 0 0 8 6 5 7 10 10 0 0 0 0 0 0 0 0 0 0 0 9 0 57 46 12 17 145 208 158 152 149 59 28 236 888 1061 875 614 508 454 417 420 385 370 369 304 210 199 189 281 407 640 695 756 677 552 467 364 264 183
1772 2025 2197 2287 2254 2315 2357 2353 2356 2348 2274 2194 2185 2261 2246 1802 878 147 58 32 27 2 0 0 0 0 0 0 1 4 2 2 13 12 4 0 0 0 0 0 0 0 0 0 0 0 1 1 34 64 3 52 173 186 356 376 190 309 348 337 696 1057 692 420 392 310 286 298 314 292 274 218 164 130 210 213 550 787 914 657 828 755 650 557 459
1702 1873 2045 2216 2283 2312 2382 2413 2386 2333 2289 2286 2300 2269 2080 1465 597 48 56 27 18 2 0 0 0 0 0 0 0 4 6 0 4 7 5 4 0 0 0 0 0 0 0 0 2 0 8 0 0 58 6 13 34 108 134 252 76 544 886 602 388 451 122 79 87 106 150 164 127 74 59 82 77 76 90 155 226 307 350 378 456 554 645 651 613
1679 1790 1944 2067 2197 2279 2326 2320 2276 2261 2300 2333 2310 2145 1785 1200 430 42 20 12 8 0 0 0 0 0 0 0 0 2 2 8 3 1 6 4 2 0 0 0 0 0 0 0 0 1 0 9 0 0 2 5 22 219 182 234 486 927 861 666 589 308 458 754 298 204 142 112 90 67 40 16 10 8 26 72 129 180 232 288 335 435 554 585 612
1638 1728 1829 1927 2047 2146 2174 2193 2166 2202 2262 2298 2227 2010 1546 978 318 44 11 0 4 5 0 0 0 0 0 0 0 1 1 8 7 4 10 8 2 0 0 0 0 0 0 0 0 1 0 0 1 0 0 8 60 186 343 179 69 498 674 625 500 372 538 463 116 75 80 61 54 48 23 5 0 0 2 16 60 142 281 400 437 507 534 528 516
1626 1680 1762 1851 1962 2008 2063 2122 2133 2170 2151 2088 2024 1919 1414 774 383 36 11 0 2 1 0 0 0 0 0 0 0 0 0 4 6 4 4 10 4 0 0 0 0 0 0 0 0 0 31 0 0 39 11 37 214 53 211 179 377 230 211 84 109 83 139 216 235 75 32 25 19 11 3 0 0 0 0 1 35 145 315 305 242 129 77 91 126
1634 1674 1719 1815 1857 1918 1974 2024 2067 2095 2002 1921 1888 1794 1451 838 456 12 516 410 0 0 0 0 0 0 0 0 0 0 0 0 1 0 5 1 4 1 0 0 0 0 0 0 0 4 65 12 8 8 22 13 385 48 253 381 355 272 266 258 142 120 310 310 328 339 59 63 77 19 10 2 0 0 0 0 2 19 42 68 39 27 27 27 17
1659 1668 1721 1760 1809 1847 1893 1935 1960 1909 1843 1822 1815 1706 1447 1094 672 538 630 639 492 0 0 0 0 0 0 0 0 0 0 0 1 2 0 1 5 4 4 0 0 0 0 0 14 31 48 138 6 56 208 130 252 345 178 91 120 55 178 333 147 140 194 218 241 258 65 23 8 6 1 0 0 0 0 0 0 0 0 0 0 0 0 0 0
1648 1680 1722 1747 1779 1809 1840 1874 1868 1749 1686 1714 1748 1660 1479 1216 954 697 707 722 647 215 0 0 0 0 0 0 0 0 1 7 10 5 1 3 26 42 20 39 36 28 0 0 8 110 110 112 204 161 121 109 126 21 47 106 107 281 184 226 144 157 238 244 226 285 201 28 15 6 6 5 0 0 0 0 0 0 0 0 0 0 0 0 0
1645 1671 1718 1754 1778 1782 1786 1804 1796 1743 1619 1626 1651 1609 1484 1364 1219 964 768 761 667 358 0 0 0 0 0 0 0 0 0 4 12 6 1 0 8 45 47 15 28 54 23 54 61 18 55 116 181 64 34 35 51 65 80 245 271 151 88 99 95 197 290 265 157 178 55 34 46 54 26 8 0 0 0 0 0 0 0 0 0 0 0 0 0
1652 1644 1683 1730 1756 1764 1756 1756 1755 1756 1676 1569 1558 1519 1466 1404 1348 1262 998 773 689 629 429 0 0 0 0 0 0 0 0 0 10 12 5 4 0 29 53 36 18 28 80 79 84 106 58 145 138 182 107 108 65 73 76 89 146 252 403 350 213 251 375 345 271 141 178 302 419 439 200 123 48 3 0 0 0 0 0 0 0 0 0 0 0
1688 1670 1661 1694 1718 1734 1735 1716 1730 1770 1750 1605 1532 1492 1434 1364 1340 1326 1192 956 752 644 600 519 0 0 0 0 0 0 0 0 3 10 16 6 4 9 52 33 16 53 103 116 81 108 151 157 131 137 156 122 67 103 69 67 67 79 107 205 284 334 230 162 251 280 210 191 183 40 92 82 53 82 19 0 0 0 0 0 0 0 0 0 0
1755 1721 1695 1689 1711 1707 1710 1700 1718 1767 1807 1714 1523 1469 1424 1378 1316 1277 1222 1020 798 695 646 611 203 0 0 0 0 0 0 0 2 2 8 11 10 2 46 38 27 67 94 108 118 129 146 126 159 247 206 204 152 101 81 80 84 111 80 149 110 240 314 271 109 101 222 191 359 345 196 98 57 48 0 0 0 0 0 0 0 0 0 0 0
1808 1791 1742 1712 1702 1718 1703 1694 1714 1752 1804 1774 1636 1476 1444 1435 1378 1256 1145 1016 783 621 567 590 560 0 0 0 0 0 0 28 62 32 5 31 45 12 57 59 67 74 80 94 103 124 142 137 178 185 199 210 191 125 137 117 147 206 71 98 115 100 74 69 242 164 43 142 364 290 399 304 140 210 68 8 0 0 0 0 0 0 0 0 0
1896 1854 1771 1742 1712 1708 1694 1688 1698 1736 1760 1758 1721 1618 1480 1448 1433 1337 1174 994 814 654 566 587 598 0 160 347 336 11 64 201 247 320 70 62 37 48 78 61 90 72 78 72 135 171 141 138 122 138 167 180 179 85 65 86 82 71 110 173 140 108 22 44 130 257 130 167 220 410 568 381 18 10 0 0 0 0 0 0 0 0 0 0 0
1962 1900 1819 1758 1729 1691 1680 1671 1690 1708 1742 1756 1768 1714 1619 1513 1465 1429 1334 1168 1036 922 854 764 698 612 456 547 569 395 297 240 303 401 132 42 18 10 76 58 16 90 107 152 179 188 210 214 184 152 141 226 181 45 57 81 88 119 224 190 97 36 58 118 265 403 407 162 314 262 307 445 26 0 0 0 0 0 0 0 0 0 0 0 0
1996 1948 1896 1830 1786 1734 1690 1685 1678 1684 1704 1752 1788 1758 1714 1620 1559 1546 1518 1417 1231 1096 1047 1029 975 880 776 707 747 592 460 272 210 378 306 49 9 0 66 62 87 147 134 197 310 277 240 257 191 118 78 122 120 57 75 100 179 234 283 245 208 232 207 188 222 244 390 45 141 38 38 138 5 0 0 0 0 0 0 0 0 0 0 0 0
2037 2020 1985 1908 1849 1787 1734 1716 1712 1703 1702 1718 1751 1758 1750 1715 1635 1627 1636 1626 1536 1362 1258 1228 1196 1155 1081 940 800 710 736 514 212 220 369 376 10 0 78 133 174 140 145 261 300 296 273 134 87 105 104 82 76 99 158 222 317 270 299 271 274 121 174 207 340 338 535 58 0 0 0 0 0 0 0 3 1 10 5 1 0 0 0 0 0
2076 2064 2038 2000 1950 1892 1841 1790 1762 1715 1742 1774 1780 1784 1794 1776 1723 1708 1749 1765 1733 1624 1505 1439 1398 1370 1367 1287 1036 826 733 668 391 265 327 446 491 257 163 163 156 145 348 445 438 378 172 114 93 51 68 62 240 432 407 366 340 274 276 322 321 235 248 330 383 268 268 0 0 0 0 0 1 0 0 18 24 62 144 44 0 0 0 0 0
2156 2131 2106 2080 2042 2014 1977 1935 1879 1850 1836 1824 1844 1873 1881 1873 1834 1820 1854 1872 1847 1776 1683 1604 1574 1561 1532 1452 1357 1152 949 830 668 426 341 284 442 538 457 256 219 423 514 481 417 232 103 70 44 37 181 462 538 425 284 248 212 265 326 398 362 289 146 1 0 0 0 0 0 0 0 0 5 0 20 37 42 64 72 2 0 0 0 0 0
2254 2218 2178 2134 2106 2074 2047 2011 1971 1948 1886 1867 1879 1899 1929 1941 1916 1924 1930 1927 1908 1860 1786 1742 1718 1676 1642 1573 1507 1468 1372 1101 753 423 266 333 350 391 327 326 474 540 520 468 381 201 66 39 201 422 425 405 366 202 80 42 65 74 64 60 0 0 0 0 0 0 0 0 0 8 7 0 39 0 8 5 0 0 0 0 0 0 0 0 0
2322 2300 2238 2208 2182 2138 2105 2072 2040 2006 1946 1940 1965 1984 1994 1994 1990 1987 1992 1991 1978 1929 1883 1866 1795 1758 1732 1678 1636 1584 1504 1289 848 502 312 288 392 329 230 432 478 448 474 436 378 258 146 238 277 354 311 82 13 0 0 0 0 0 0 0 0 0 0 1 3 0 0 0 0 5 0 0 1 7 0 0 0 0 0 0 0 0 0 0 0
2382 2381 2347 2306 2266 2205 2177 2133 2088 2085 2027 2018 2048 2070 2064 2062 2024 2016 2026 2032 2030 1986 1960 1912 1856 1880 1874 1831 1800 1716 1611 1354 971 693 453 287 270 232 130 19 301 390 426 364 290 84 102 179 355 233 26 0 0 0 0 0 0 0 0 0 0 0 2 0 0 0 0 0 0 0 1 1 5 0 0 0 0 0 0 0 0 0 0 0 0
2435 2413 2402 2372 2325 2284 2250 2192 2182 2122 2062 2068 2081 2089 2086 2064 2041 2029 2039 2044 2020 2019 2008 1982 2052 2048 2013 1966 1875 1794 1615 1451 1233 890 655 496 213 124 92 28 178 436 346 221 162 34 176 374 296 42 0 0 0 0 0 0 0 0 0 0 0 0 0 0 0 0 0 0 0 31 2 1 0 0 0 0 0 0 0 0 0 0 0 0 0
Wind_Speed
16 15 14 14 14 14 14 13 11 11 10 11 10 10 10 8 9 9 9 8 7 6 7 8 9 9 9 11 10 11 13 13 13 12 12 11 10 11 14 13 17 17 17 16 13 14 14 13 12 11 10 10 10 9 7 7 8 8 9 9 10 8 6 5 4 4 4 4 5 5 6 7 8 9 9 9 8 7 6 5 5 5 4 4 4
15 15 13 14 13 13 13 13 12 10 10 12 10 10 10 9 9 9 9 8 5 7 5 5 5 5 6 9 10 nan nan 10 11 12 12 12 12 12 14 14 16 16 15 16 16 17 14 10 10 9 9 9 8 7 7 6 7 8 8 8 8 8 7 5 4 4 4 4 4 4 5 5 6 7 8 8 7 6 6 5 5 5 4 4 4
14 14 14 14 14 13 13 12 12 10 9 10 8 9 8 9 8 8 7 6 5 5 4 3 4 4 5 nan nan nan nan nan 10 11 11 11 12 12 10 12 14 15 19 17 16 15 14 11 11 9 10 10 8 7 6 8 6 2 5 5 5 7 8 7 6 6 7 7 7 7 7 6 6 6 8 8 7 6 5 4 4 4 4 5 5
13 13 13 13 14 14 13 12 12 10 9 9 8 6 7 6 7 7 6 6 6 5 5 5 4 3 3 nan nan nan nan nan 8 10 10 11 12 11 10 9 12 15 14 16 17 15 11 10 10 12 11 9 7 7 9 7 7 9 7 6 5 5 7 9 10 10 10 10 10 10 9 9 8 8 8 7 8 7 6 4 4 4 3 4 4
13 13 13 13 13 13 13 12 11 9 9 10 8 6 6 5 5 6 4 4 4 5 5 6 4 2 3 2 2 nan nan nan nan 7 8 8 8 9 10 10 9 10 13 16 11 10 15 15 12 8 8 9 7 7 9 8 7 8 7 3 4 8 7 10 16 13 12 13 13 12 14 14 13 12 10 8 7 7 6 6 4 4 3 4 4
12 13 12 12 12 12 12 11 10 10 9 9 10 9 7 5 5 4 3 4 3 4 5 4 6 4 3 3 nan 3 nan nan nan 5 6 7 8 9 10 10 10 9 8 8 18 19 16 15 12 12 10 10 8 7 9 9 9 8 6 2 2 4 3 6 8 8 6 5 6 7 8 10 11 14 16 14 10 8 7 8 6 4 4 4 5
11 12 12 11 11 11 11 11 9 9 9 9 11 9 8 7 6 4 4 5 5 5 5 5 6 5 4 5 4 3 nan nan 2 3 5 6 7 9 9 9 10 9 9 9 13 17 15 15 14 12 11 10 11 10 9 7 4 7 8 6 4 5 4 4 2 2 3 3 1 2 4 5 7 8 10 12 14 14 13 10 8 7 6 6 6
10 10 11 10 10 10 10 9 9 9 9 9 10 11 10 9 8 8 7 6 6 7 7 5 5 6 4 nan nan 6 nan nan 3 3 4 6 7 7 7 7 9 9 10 10 10 11 17 17 16 15 12 10 9 8 10 7 2 8 6 4 5 4 1 2 3 2 2 2 1 2 2 1 2 3 5 9 12 14 15 15 15 14 12 9 6
10 10 11 10 10 9 9 9 9 9 9 10 11 10 11 11 9 10 11 11 8 8 7 7 4 4 nan nan nan 7 nan nan nan 6 6 6 6 6 6 7 7 8 7 8 10 10 14 16 16 16 15 13 10 10 11 13 11 9 7 5 1 5 6 8 6 4 3 3 2 3 1 2 1 1 2 4 6 9 12 15 15 14 14 14 11
10 10 10 9 9 9 8 10 10 10 11 11 12 10 11 11 11 9 11 11 11 8 6 6 6 4 nan nan nan nan nan 8 9 9 8 7 6 6 6 6 6 6 6 7 8 9 10 13 15 15 15 15 14 14 14 15 12 12 11 10 9 11 11 9 8 6 5 4 2 5 6 6 5 3 2 0 2 5 10 12 13 13 13 13 12
9 9 9 8 8 9 10 11 11 12 13 13 12 12 12 11 12 9 9 10 10 9 9 8 6 5 5 6 nan nan 7 8 9 nan 8 7 8 8 7 7 7 7 7 6 7 8 9 10 12 12 12 13 13 14 16 16 17 14 11 11 12 13 12 12 11 9 8 5 5 6 5 4 3 4 4 2 1 3 6 6 7 11 14 13 13
9 9 10 9 9 10 12 12 13 14 15 14 14 13 14 14 13 11 9 7 9 9 9 8 7 nan 5 nan nan 8 9 7 nan 9 9 8 9 10 9 9 9 9 8 8 7 7 8 9 10 11 12 11 12 14 15 15 14 13 15 13 12 12 11 11 12 10 9 9 7 5 4 2 1 2 4 3 3 4 3 3 4 6 11 14 14
9 10 10 10 10 10 11 13 14 16 16 15 14 14 13 14 13 12 13 11 9 nan nan nan nan nan nan nan nan 6 8 7 nan nan 9 9 11 12 12 12 11 10 10 10 10 9 10 11 10 11 11 11 13 15 16 17 19 16 14 15 15 13 13 13 12 10 9 9 6 5 5 4 3 3 4 3 2 3 4 4 2 2 6 11 15
9 10 10 10 10 11 12 14 15 16 14 12 12 12 13 14 14 14 12 15 14 nan nan nan nan nan nan nan nan nan 7 nan nan nan nan 10 11 13 13 13 14 12 12 12 11 11 10 11 11 11 11 12 12 14 15 16 17 18 15 13 14 16 15 14 12 9 6 6 5 5 5 5 4 4 5 2 3 2 2 3 5 4 3 8 12
9 10 10 10 12 12 13 14 15 14 12 12 12 13 14 16 18 18 17 14 14 14 14 nan nan nan nan nan nan nan nan nan nan nan nan 9 11 13 13 14 15 14 13 14 13 13 12 12 12 12 12 13 13 13 14 15 16 19 18 16 14 14 13 12 13 14 13 9 7 4 3 4 7 6 4 5 6 6 4 3 3 3 3 4 4
9 10 10 11 13 13 13 14 14 12 12 12 12 14 14 16 18 19 17 17 nan nan 15 nan nan nan nan nan nan nan nan nan nan nan nan 9 11 12 13 14 14 14 14 15 14 14 14 13 14 14 15 14 14 14 15 15 17 19 19 19 18 17 13 12 11 14 14 15 12 11 11 10 9 7 7 8 10 11 11 10 8 6 5 4 3
9 11 12 12 13 13 13 13 13 11 10 11 12 15 17 19 20 19 19 20 nan nan 17 nan nan nan nan nan nan nan nan nan nan nan nan 9 9 11 12 13 13 12 13 15 15 14 14 14 16 17 16 16 15 15 16 16 15 17 17 18 19 18 17 17 17 16 16 15 16 16 15 14 13 11 11 11 11 13 17 18 18 15 12 7 5
9 11 12 13 13 13 13 13 11 10 10 11 12 13 17 19 19 18 18 19 nan nan nan 17 16 17 nan nan nan nan nan nan nan nan nan nan 8 11 11 12 12 11 11 12 13 13 14 14 17 17 17 17 16 17 17 17 17 17 17 17 20 18 19 18 18 18 18 17 17 17 17 17 16 14 13 12 12 11 13 16 19 21 20 17 13
8 11 12 13 13 12 13 11 10 10 9 10 12 16 17 19 15 13 16 17 nan nan nan nan nan nan nan nan 14 12 nan nan nan nan nan nan 8 9 11 11 12 11 10 10 11 11 13 14 15 18 18 18 18 18 19 19 18 19 18 19 21 21 21 20 19 19 19 18 17 17 16 16 17 16 15 14 13 12 13 14 15 17 19 20 19
8 11 12 13 13 12 12 11 10 9 9 10 13 14 15 15 14 13 11 14 nan nan nan nan nan nan 14 14 14 nan nan nan nan nan nan nan nan nan nan 11 12 12 12 11 11 11 11 12 14 17 19 19 19 19 20 20 20 20 19 19 20 22 23 22 21 19 19 19 18 nan nan 16 16 16 16 15 15 15 14 14 14 14 15 17 19
8 10 12 14 13 12 12 11 9 9 9 9 11 13 17 17 15 13 13 13 nan nan nan nan nan nan nan nan nan nan nan nan nan nan nan nan nan nan nan nan nan 11 12 13 13 14 nan nan nan 16 19 19 19 20 20 21 22 22 21 19 19 20 22 22 22 20 nan nan 18 18 18 nan nan nan nan 16 16 16 16 15 15 14 15 15 17
8 10 12 13 13 12 11 11 9 9 9 10 11 13 16 16 15 15 13 nan nan 13 nan nan nan nan nan nan nan nan nan nan nan nan nan nan nan nan nan nan nan nan nan 14 14 14 nan nan nan nan nan 20 20 19 20 20 21 22 21 19 19 19 20 21 21 19 nan 18 18 17 nan nan nan nan nan nan nan 17 17 17 17 16 15 15 15
9 10 12 13 14 13 11 9 8 8 8 9 11 13 15 16 14 13 13 nan nan nan 14 nan nan nan nan nan nan nan nan nan nan nan nan nan nan nan nan nan nan nan nan nan 16 nan nan nan nan nan nan nan nan 21 20 19 18 18 17 19 19 19 20 21 21 20 19 20 18 18 17 17 nan nan nan nan nan nan nan 17 17 17 17 16 16
10 11 12 14 14 13 11 9 8 8 8 8 10 12 14 15 13 12 11 nan nan nan nan nan nan nan nan nan nan nan nan nan nan nan nan nan nan nan nan nan nan nan nan nan nan nan nan nan nan nan nan nan nan nan 21 20 19 16 16 17 19 20 20 21 21 22 21 20 20 19 18 18 nan nan nan nan nan nan nan nan nan nan nan nan nan
11 12 13 15 14 13 11 9 8 7 7 8 10 13 15 15 13 12 12 nan nan nan nan nan nan nan nan nan nan nan nan nan nan nan nan nan nan nan nan nan nan nan nan nan nan nan nan nan nan nan nan nan nan nan nan nan 21 20 18 18 17 18 19 20 21 21 21 21 20 20 20 20 19 19 19 18 nan nan nan nan nan nan nan nan nan
13 13 15 15 14 13 11 10 9 8 8 8 11 13 15 14 13 12 nan nan nan nan nan nan nan nan nan nan nan nan nan nan nan nan nan nan nan nan nan nan nan nan nan nan nan nan nan nan nan nan nan nan nan nan nan nan nan 21 21 19 19 19 19 19 20 21 21 22 22 21 21 20 19 19 19 19 18 18 17 16 nan nan nan nan nan
13 14 17 16 15 13 11 10 9 8 8 9 11 13 13 13 12 13 nan nan nan nan nan nan nan nan nan nan nan nan nan nan nan nan nan nan nan nan nan nan nan nan nan nan nan nan nan nan nan nan nan nan nan nan nan nan nan nan 21 21 21 21 20 20 20 20 20 21 21 21 21 21 21 21 20 20 20 20 20 19 17 16 15 nan nan
13 16 18 18 17 15 12 10 8 8 8 10 12 12 13 13 12 14 nan nan nan nan nan nan nan nan nan nan nan nan nan nan nan nan nan nan nan nan nan nan nan nan nan nan nan nan nan nan nan nan nan 17 16 16 15 16 nan nan 19 22 23 22 22 22 22 22 22 22 22 21 20 19 19 20 21 21 22 22 23 22 20 18 17 16 17
14 16 19 20 18 16 14 11 8 7 9 10 12 12 13 13 13 16 nan nan nan nan nan nan nan nan nan nan nan nan nan nan nan nan nan nan nan nan nan nan nan nan nan nan nan nan nan nan nan nan nan nan 17 18 18 17 17 18 20 21 21 22 22 22 22 23 23 23 23 22 21 20 19 18 20 20 22 23 23 24 24 22 20 19 19
16 17 20 20 19 18 15 12 9 7 8 11 11 12 13 12 14 nan nan nan nan nan nan nan nan nan nan nan nan nan nan nan nan nan nan nan nan nan nan nan nan nan nan nan nan nan nan nan nan nan nan nan nan 20 20 20 nan 19 21 21 21 21 20 nan nan 21 22 22 22 nan nan nan nan nan nan 19 19 20 21 22 23 23 23 21 20
18 19 19 20 20 18 16 13 10 8 8 9 11 11 12 12 15 nan nan nan nan nan nan nan nan nan nan nan nan nan nan nan nan nan nan nan nan nan nan nan nan nan nan nan nan nan nan nan nan nan nan nan nan 19 20 21 21 21 22 22 21 21 20 21 20 20 21 21 nan nan nan nan nan nan nan nan 22 21 21 21 22 22 23 23 22
18 18 19 20 21 20 17 14 11 9 9 9 11 11 12 13 16 nan nan nan nan nan nan nan nan nan nan nan nan nan nan nan nan nan nan nan nan nan nan nan nan nan nan nan nan nan nan nan nan nan nan nan nan 19 19 21 nan 21 22 22 21 21 23 24 23 nan nan nan nan nan nan nan nan nan nan nan nan 25 24 24 24 24 25 25 25
20 19 19 20 21 20 18 15 12 12 11 10 10 10 12 14 16 nan nan nan nan nan nan nan nan nan nan nan nan nan nan nan nan nan nan nan nan nan nan nan nan nan nan nan nan nan nan nan nan nan nan nan 21 nan 23 22 22 22 23 nan 24 nan 25 25 26 nan nan nan nan nan nan nan nan nan nan nan nan 26 27 27 27 27 nan nan 28
21 19 19 19 20 21 19 16 14 14 12 11 11 11 13 15 16 nan 16 19 nan nan nan nan nan nan nan nan nan nan nan nan nan nan nan nan nan nan nan nan nan nan nan nan nan nan nan nan nan nan nan nan 23 nan 23 23 23 23 23 25 27 27 27 28 28 28 nan nan nan nan nan nan nan nan nan nan nan nan nan nan nan nan nan nan nan
21 19 19 19 20 20 17 16 15 15 13 12 11 12 13 15 15 15 16 19 20 nan nan nan nan nan nan nan nan nan nan nan nan nan nan nan nan nan nan nan nan nan nan nan nan nan nan 21 nan nan 25 26 27 26 27 nan 27 nan 26 28 29 30 31 31 31 32 nan nan nan nan nan nan nan nan nan nan nan nan nan nan nan nan nan nan nan
21 19 19 19 20 19 16 16 16 16 15 13 12 12 14 14 13 15 17 18 20 21 nan nan nan nan nan nan nan nan nan nan nan nan nan nan nan nan nan nan nan nan nan nan nan 23 24 23 24 27 28 28 31 nan nan 31 30 30 30 29 31 31 32 35 35 35 34 nan nan nan nan nan nan nan nan nan nan nan nan nan nan nan nan nan nan
21 20 19 19 18 17 15 16 17 16 16 15 14 14 14 12 13 15 16 18 20 23 nan nan nan nan nan nan nan nan nan nan nan nan nan nan nan nan nan nan nan nan nan nan nan nan nan 25 24 nan nan nan nan nan nan 34 33 33 nan nan nan 34 34 35 37 39 nan nan nan nan nan nan nan nan nan nan nan nan nan nan nan nan nan nan nan
21 20 19 18 17 14 14 16 17 17 17 16 17 17 15 13 14 15 16 18 21 24 25 nan nan nan nan nan nan nan nan nan nan nan nan nan nan nan nan nan nan nan nan nan nan 28 nan 26 27 27 32 31 nan nan nan nan 36 35 34 34 35 38 38 36 38 41 41 41 41 41 40 40 nan nan nan nan nan nan nan nan nan nan nan nan nan
21 20 18 17 15 14 15 17 17 17 17 17 18 17 15 15 15 16 16 19 21 23 25 28 nan nan nan nan nan nan nan nan nan nan nan nan nan nan nan nan nan nan 29 29 nan 28 28 28 29 31 32 35 nan 38 nan nan nan nan 39 37 37 43 43 40 37 40 43 42 41 nan nan nan nan nan nan nan nan nan nan nan nan nan nan nan nan
22 21 19 17 16 16 17 17 17 17 17 17 18 17 16 17 17 16 18 20 21 22 24 27 28 nan nan nan nan nan nan nan nan nan nan nan nan nan nan nan nan nan nan 31 31 30 30 30 31 32 36 38 40 42 nan nan nan 44 nan 45 40 40 42 44 43 41 43 43 42 42 42 nan nan nan nan nan nan nan nan nan nan nan nan nan nan
24 24 22 20 18 17 17 17 17 17 16 17 17 18 18 18 18 19 21 22 23 24 24 26 27 nan nan nan nan nan nan nan nan nan nan nan nan nan nan nan nan nan nan nan 32 33 32 32 32 36 36 38 41 43 43 45 46 44 nan nan 44 nan nan nan 43 46 nan 46 45 43 41 42 41 41 nan nan nan nan nan nan nan nan nan nan nan
25 27 26 23 21 20 20 19 18 16 15 16 17 20 21 21 21 22 23 23 24 24 25 25 26 nan 26 26 25 nan nan 32 34 37 nan nan nan nan nan nan nan nan nan nan 34 34 35 35 35 36 38 38 41 nan nan nan nan nan 45 47 45 46 nan nan 43 44 49 48 46 42 40 42 nan nan nan nan nan nan nan nan nan nan nan nan nan
26 28 29 26 22 22 23 21 18 15 15 15 18 22 24 26 25 25 26 26 25 25 25 27 26 27 27 27 27 27 28 28 30 37 38 nan nan nan nan nan nan nan 34 35 35 37 38 37 38 41 41 39 42 nan nan nan nan 46 46 49 nan nan nan 45 40 42 47 48 47 45 40 42 nan nan nan nan nan nan nan nan nan nan nan nan nan
27 28 28 27 25 25 25 23 20 16 15 15 20 23 26 28 28 27 26 27 26 25 26 27 26 27 29 31 32 29 25 25 26 33 38 nan nan nan nan nan nan 35 37 39 38 39 41 40 42 42 nan 42 42 nan nan nan 46 47 51 52 52 50 46 44 42 41 47 nan 45 nan nan 41 nan nan nan nan nan nan nan nan nan nan nan nan nan
29 29 28 28 27 27 27 25 20 18 16 17 22 25 27 29 30 29 27 27 27 26 27 28 27 28 30 35 39 36 30 29 32 36 38 36 nan nan nan 32 34 36 37 38 40 41 43 43 nan 44 46 nan nan nan 49 50 52 50 52 51 49 48 46 43 42 42 43 nan nan nan nan nan nan nan nan nan nan nan nan nan nan nan nan nan nan
30 28 28 28 28 28 27 25 22 20 17 19 23 26 28 29 29 29 27 28 27 27 28 28 28 29 33 41 44 41 37 35 36 40 40 35 33 31 30 32 34 36 38 40 43 45 46 46 nan nan nan nan 49 46 49 53 53 51 49 46 46 45 45 44 43 40 40 nan nan nan nan nan nan nan nan nan nan nan 39 nan nan nan nan nan nan
31 30 29 29 28 28 28 26 25 22 20 23 25 27 28 29 30 30 27 27 26 27 28 28 30 31 38 43 44 42 41 41 42 46 43 36 33 32 34 35 38 37 39 41 43 44 45 nan nan nan 47 49 49 48 49 53 53 51 50 47 46 45 44 nan nan nan nan nan nan nan nan nan nan nan nan nan nan nan nan nan nan nan nan nan nan
30 29 27 27 27 28 29 29 27 23 23 26 26 27 28 29 32 29 27 26 26 27 28 29 31 34 39 42 42 43 45 45 50 55 45 36 34 35 36 37 38 39 41 42 45 46 nan nan 45 45 47 50 51 52 nan nan nan nan nan nan nan nan nan nan nan nan nan nan nan nan nan nan nan nan nan nan nan nan nan nan nan nan nan nan nan
30 29 28 28 28 29 29 30 28 24 23 27 29 28 29 32 34 29 27 25 25 27 29 31 33 36 40 42 43 44 46 47 53 54 43 37 35 36 37 39 39 41 42 43 43 46 47 47 47 48 51 nan nan nan nan nan nan nan nan nan nan nan nan nan nan nan nan nan nan nan nan nan nan nan nan nan nan nan nan nan nan nan nan nan nan
30 29 29 28 29 29 29 29 29 26 23 29 30 31 32 36 36 31 28 27 25 27 30 34 35 36 40 47 45 44 47 49 54 51 42 38 37 37 38 nan 42 42 42 42 42 nan 46 49 49 49 nan nan nan nan nan nan nan nan nan nan nan nan nan nan nan nan nan nan nan nan nan nan nan nan nan nan nan nan nan nan nan nan nan nan nan
29 30 30 29 29 29 27 28 30 27 26 29 32 34 36 37 36 31 30 27 26 28 33 34 35 36 39 43 48 47 48 50 53 46 40 37 36 37 nan nan 42 43 44 45 45 nan 46 47 46 nan nan nan nan nan nan nan nan nan nan nan nan nan nan nan nan nan nan nan nan nan nan nan nan nan nan nan nan nan nan nan nan nan nan nan nan
Wind_Direction
102 101 102 101 99 96 92 88 83 79 73 74 69 73 73 70 70 71 69 65 62 67 60 43 40 44 54 69 58 35 28 23 22 24 20 17 20 31 34 35 4 31 32 36 36 47 47 32 33 42 31 24 21 8 9 342 334 320 295 273 265 263 259 258 268 284 305 316 318 318 321 319 316 314 313 313 312 311 307 305 305 307 314 318 325
99 101 98 98 95 93 90 85 77 72 63 64 60 56 61 63 59 54 54 57 30 58 54 59 57 48 45 63 62 nan nan 16 17 20 16 11 11 17 32 25 20 14 23 23 36 34 34 32 30 37 40 43 44 22 1 30 11 342 314 275 258 259 258 259 263 267 284 299 300 302 304 306 308 308 307 309 309 311 312 307 302 302 313 324 331
96 95 95 94 95 90 84 81 76 64 55 62 59 52 53 48 50 49 45 36 40 37 32 51 56 51 21 nan nan nan nan nan 13 18 17 8 8 7 15 29 28 9 16 21 29 30 22 18 34 30 28 40 32 36 33 29 15 22 18 333 268 263 275 284 283 288 288 287 287 292 287 291 295 299 302 305 308 305 302 294 294 299 311 324 335
92 91 89 89 87 82 78 72 68 59 48 52 50 49 45 44 37 29 20 3 10 28 25 23 50 31 19 nan nan nan nan nan 17 12 15 8 7 360 358 16 28 24 10 20 18 24 3 31 22 33 26 35 36 30 24 21 356 17 49 88 153 217 281 293 298 297 301 301 290 278 271 267 269 270 275 286 296 300 300 293 281 281 295 311 324
87 84 86 82 79 76 72 63 59 46 34 34 36 33 29 26 11 0 8 352 350 1 14 10 9 19 339 311 36 nan nan nan nan 10 14 10 1 359 356 3 10 26 11 9 13 17 10 20 17 10 18 22 37 35 24 12 6 20 45 47 176 182 195 264 265 266 258 257 259 263 263 259 248 241 240 251 265 281 291 295 290 279 267 272 298
81 80 79 74 69 64 60 57 44 30 19 15 17 11 16 16 2 344 351 335 343 359 356 359 338 356 316 341 nan 38 nan nan nan 5 6 1 356 359 360 355 2 2 360 332 331 1 12 6 7 14 17 17 21 358 352 3 12 12 10 348 196 148 147 238 257 261 263 257 250 242 239 242 244 241 238 236 235 243 255 256 253 253 249 242 243
75 73 69 61 56 52 46 45 33 20 17 12 10 4 359 13 1 11 354 340 345 355 348 354 327 315 344 345 340 332 nan nan 293 339 346 352 358 356 359 353 354 356 355 348 352 356 2 2 6 10 17 17 17 9 345 348 50 40 21 18 37 79 105 170 213 294 323 331 320 260 242 239 244 242 234 233 239 243 242 241 240 234 233 235 234
70 62 59 48 42 37 38 37 30 17 17 10 8 12 8 16 8 356 16 14 359 2 344 340 329 320 331 nan nan 303 nan nan 301 318 328 342 355 356 350 350 348 356 5 348 345 355 1 0 1 0 2 18 20 19 350 311 50 65 73 49 35 71 60 31 60 4 358 3 307 242 232 182 177 175 203 221 226 233 238 239 241 238 228 221 219
62 51 46 37 29 28 29 28 18 12 10 11 13 11 13 20 19 1 359 9 2 9 346 332 333 322 nan nan nan 296 nan nan nan 329 328 330 346 339 346 344 344 355 356 348 341 343 353 357 359 358 355 2 16 14 354 333 12 48 47 19 33 77 43 26 23 10 350 358 346 295 33 85 50 107 161 201 209 220 225 232 236 245 246 236 224
56 45 40 30 19 20 23 19 9 5 7 8 16 13 17 17 29 10 2 1 5 3 352 336 327 332 nan nan nan nan nan 297 310 313 317 325 327 329 331 329 329 329 345 348 344 349 351 354 355 354 355 359 5 354 345 330 5 25 25 3 3 38 30 20 24 27 29 24 354 4 15 31 42 49 65 76 221 227 224 220 225 233 242 245 240
51 38 32 23 14 12 15 9 2 2 5 8 14 18 21 22 28 32 11 11 5 350 350 341 328 320 307 292 nan nan 293 306 303 nan 311 320 311 313 317 317 316 319 323 336 342 346 350 345 343 341 341 351 1 351 341 345 349 0 353 0 3 12 17 20 13 11 20 30 29 26 28 34 45 60 61 35 321 243 228 214 219 227 231 236 240
45 32 26 17 9 8 8 357 359 358 1 9 17 20 24 26 30 28 39 17 359 352 346 347 334 nan 315 nan nan 299 296 298 nan 300 307 306 302 301 303 301 303 306 311 318 326 331 328 329 335 335 333 339 354 339 338 332 335 354 357 345 338 352 0 10 14 11 10 16 22 27 34 27 30 55 68 53 329 294 280 238 211 223 227 229 231
40 24 19 13 7 358 356 356 356 359 2 14 15 18 19 16 13 15 16 11 4 nan nan nan nan nan nan nan nan 282 295 292 nan nan 296 297 295 294 293 292 290 293 298 303 310 315 314 312 316 323 323 328 331 333 333 334 334 345 348 341 340 346 346 353 3 2 2 8 9 20 27 9 337 358 48 43 320 314 321 320 317 259 232 223 222
33 17 14 4 356 351 356 357 355 359 4 4 10 14 12 6 4 3 359 358 2 nan nan nan nan nan nan nan nan nan 295 nan nan nan nan 290 291 286 283 285 286 289 291 294 295 297 295 296 302 306 308 311 313 321 326 328 332 337 337 336 336 340 348 350 340 332 336 342 351 26 29 15 9 5 9 335 273 291 1 347 326 319 284 234 227
24 12 4 354 355 352 358 353 354 353 353 1 9 14 13 13 9 8 8 3 12 9 357 nan nan nan nan nan nan nan nan nan nan nan nan 284 283 281 281 282 282 283 286 288 289 290 291 293 293 292 291 295 301 306 312 313 321 329 332 333 336 335 340 334 328 322 322 317 320 336 344 327 343 355 323 292 295 299 299 279 286 297 280 266 246
8 3 357 350 349 354 350 350 351 353 354 360 10 18 17 17 14 19 13 23 nan nan 19 nan nan nan nan nan nan nan nan nan nan nan nan 280 282 283 284 285 283 282 283 283 285 289 292 292 289 286 287 292 298 301 303 307 310 308 310 308 307 315 319 317 311 301 308 309 311 308 300 288 287 279 275 273 272 272 272 268 270 266 261 267 253
351 354 350 347 347 346 346 349 345 348 352 3 11 21 21 19 17 23 27 27 nan nan 33 nan nan nan nan nan nan nan nan nan nan nan nan 296 280 286 286 284 283 283 281 280 282 287 290 293 289 287 288 291 294 295 295 295 292 296 298 304 305 306 304 301 299 296 296 296 294 297 300 300 298 292 281 273 267 265 263 263 263 266 269 267 247
336 344 345 339 341 343 344 340 340 343 356 7 13 13 19 19 20 24 30 29 nan nan nan 27 35 34 nan nan nan nan nan nan nan nan nan nan 312 297 293 291 291 287 281 279 278 283 288 289 290 291 292 293 293 292 290 289 289 289 293 291 299 300 297 297 300 300 300 301 302 304 307 309 306 299 289 278 270 264 263 264 265 264 264 261 253
323 335 338 336 337 339 339 338 335 341 351 357 12 20 17 15 10 16 25 14 nan nan nan nan nan nan nan nan 18 19 nan nan nan nan nan nan 314 318 311 307 305 301 297 291 287 284 286 288 290 292 295 295 294 291 287 285 286 287 291 293 298 300 301 302 303 305 305 303 300 300 299 299 300 299 295 290 283 276 270 270 270 270 268 264 256
319 328 332 329 333 334 332 326 330 339 345 3 17 15 7 6 4 9 359 2 nan nan nan nan nan nan 14 14 7 nan nan nan nan nan nan nan nan nan nan 324 322 322 317 310 303 294 285 284 286 287 288 291 292 291 287 285 283 281 281 285 294 299 302 305 307 308 307 305 303 nan nan 298 297 298 296 293 288 286 282 280 279 278 276 272 266
314 323 327 330 331 331 327 324 326 335 344 357 11 3 1 357 355 352 352 350 nan nan nan nan nan nan nan nan nan nan nan nan nan nan nan nan nan nan nan nan nan 336 331 319 311 305 nan nan nan 288 290 290 290 289 287 285 284 283 283 286 291 295 297 300 304 307 nan nan 305 305 304 nan nan nan nan 291 288 286 284 281 279 278 278 278 275
309 314 321 326 330 326 321 324 325 326 336 351 356 353 352 355 355 352 344 nan nan 358 nan nan nan nan nan nan nan nan nan nan nan nan nan nan nan nan nan nan nan nan nan 334 328 317 nan nan nan nan nan 295 295 294 291 288 285 282 284 288 288 290 291 294 296 298 nan 299 299 299 nan nan nan nan nan nan nan 282 281 280 279 277 275 272 272
302 312 322 323 333 333 326 317 311 313 326 338 352 349 347 349 348 342 341 nan nan nan 6 nan nan nan nan nan nan nan nan nan nan nan nan nan nan nan nan nan nan nan nan nan 328 nan nan nan nan nan nan nan nan 301 299 295 290 287 288 285 285 283 285 288 291 291 291 291 293 293 294 293 nan nan nan nan nan nan nan 278 277 276 274 272 271
297 304 315 327 328 330 328 319 317 318 324 331 336 339 338 338 336 336 340 nan nan nan nan nan nan nan nan nan nan nan nan nan nan nan nan nan nan nan nan nan nan nan nan nan nan nan nan nan nan nan nan nan nan nan 306 304 302 305 292 288 287 286 286 287 288 289 290 289 289 289 289 289 nan nan nan nan nan nan nan nan nan nan nan nan nan
307 313 318 328 324 326 321 311 309 314 314 318 327 326 332 334 335 333 335 nan nan nan nan nan nan nan nan nan nan nan nan nan nan nan nan nan nan nan nan nan nan nan nan nan nan nan nan nan nan nan nan nan nan nan nan nan 308 309 310 293 295 289 287 286 286 287 287 289 288 288 286 286 284 282 281 281 nan nan nan nan nan nan nan nan nan
305 319 313 321 321 325 319 308 304 312 304 317 315 323 327 332 330 329 nan nan nan nan nan nan nan nan nan nan nan nan nan nan nan nan nan nan nan nan nan nan nan nan nan nan nan nan nan nan nan nan nan nan nan nan nan nan nan 317 318 304 294 293 290 288 286 285 287 288 289 289 289 288 288 286 284 283 282 282 281 281 nan nan nan nan nan
304 308 305 315 320 316 313 300 299 293 295 300 306 316 323 323 325 325 nan nan nan nan nan nan nan nan nan nan nan nan nan nan nan nan nan nan nan nan nan nan nan nan nan nan nan nan nan nan nan nan nan nan nan nan nan nan nan nan 315 307 297 295 295 291 286 284 283 282 281 283 284 286 287 288 287 288 288 288 287 284 280 278 274 nan nan
291 296 306 310 314 315 303 296 292 290 288 299 305 310 317 321 317 316 nan nan nan nan nan nan nan nan nan nan nan nan nan nan nan nan nan nan nan nan nan nan nan nan nan nan nan nan nan nan nan nan nan 327 322 320 314 314 nan nan 312 305 302 298 296 294 292 290 288 287 285 283 281 279 278 278 279 281 284 286 288 287 284 281 278 275 271
284 290 297 303 308 310 301 289 285 288 280 291 301 310 313 315 316 318 nan nan nan nan nan nan nan nan nan nan nan nan nan nan nan nan nan nan nan nan nan nan nan nan nan nan nan nan nan nan nan nan nan nan 327 323 320 317 313 311 304 302 301 298 297 298 296 294 294 294 295 294 292 288 284 279 275 271 270 271 274 278 280 279 275 272 271
279 281 293 302 304 306 296 284 278 289 287 280 294 305 308 312 317 nan nan nan nan nan nan nan nan nan nan nan nan nan nan nan nan nan nan nan nan nan nan nan nan nan nan nan nan nan nan nan nan nan nan nan nan 326 324 320 nan 316 305 300 297 294 294 nan nan 289 288 288 288 nan nan nan nan nan nan 280 274 270 267 266 266 270 272 272 270
276 282 292 297 298 300 290 280 276 284 286 289 285 297 306 311 313 nan nan nan nan nan nan nan nan nan nan nan nan nan nan nan nan nan nan nan nan nan nan nan nan nan nan nan nan nan nan nan nan nan nan nan nan 321 321 317 312 307 304 301 296 294 291 287 286 282 280 278 nan nan nan nan nan nan nan nan 284 278 272 268 268 268 269 270 270
278 284 287 290 296 298 288 276 279 281 284 288 283 296 302 312 313 nan nan nan nan nan nan nan nan nan nan nan nan nan nan nan nan nan nan nan nan nan nan nan nan nan nan nan nan nan nan nan nan nan nan nan nan 325 323 315 nan 300 299 294 290 285 284 282 279 nan nan nan nan nan nan nan nan nan nan nan nan 279 276 274 272 272 271 269 268
276 281 288 290 291 293 291 276 279 278 280 282 282 290 302 311 313 nan nan nan nan nan nan nan nan nan nan nan nan nan nan nan nan nan nan nan nan nan nan nan nan nan nan nan nan nan nan nan nan nan nan nan 321 nan 315 312 308 302 298 nan 286 nan 278 276 274 nan nan nan nan nan nan nan nan nan nan nan nan 272 272 271 270 269 nan nan 268
277 278 286 283 284 287 280 269 273 277 282 289 285 291 302 312 312 nan 313 321 nan nan nan nan nan nan nan nan nan nan nan nan nan nan nan nan nan nan nan nan nan nan nan nan nan nan nan nan nan nan nan nan 322 nan 311 307 305 300 292 288 286 280 276 274 274 274 nan nan nan nan nan nan nan nan nan nan nan nan nan nan nan nan nan nan nan
271 276 280 282 285 289 282 274 278 282 285 288 291 301 308 316 317 311 313 322 331 nan nan nan nan nan nan nan nan nan nan nan nan nan nan nan nan nan nan nan nan nan nan nan nan nan nan 338 nan nan 324 318 319 314 309 nan 306 nan 297 291 285 282 281 280 279 280 nan nan nan nan nan nan nan nan nan nan nan nan nan nan nan nan nan nan nan
269 269 274 280 283 286 280 275 282 284 284 287 293 299 312 315 316 319 320 325 329 331 nan nan nan nan nan nan nan nan nan nan nan nan nan nan nan nan nan nan nan nan nan nan nan 338 331 333 327 325 320 318 316 nan nan 308 302 299 296 294 295 291 288 288 289 288 287 nan nan nan nan nan nan nan nan nan nan nan nan nan nan nan nan nan nan
265 265 266 273 281 282 276 278 282 283 286 291 298 299 303 303 310 314 321 325 326 330 nan nan nan nan nan nan nan nan nan nan nan nan nan nan nan nan nan nan nan nan nan nan nan nan nan 332 325 nan nan nan nan nan nan 303 301 299 nan nan nan 295 294 295 295 294 nan nan nan nan nan nan nan nan nan nan nan nan nan nan nan nan nan nan nan
265 266 269 272 277 278 272 275 280 284 286 292 301 304 297 295 304 311 315 319 324 330 333 nan nan nan nan nan nan nan nan nan nan nan nan nan nan nan nan nan nan nan nan nan nan 326 nan 328 324 320 316 315 nan nan nan nan 303 302 303 304 300 298 296 296 296 295 294 294 293 293 292 291 nan nan nan nan nan nan nan nan nan nan nan nan nan
268 268 270 276 272 267 265 269 277 282 286 293 299 299 296 299 307 311 314 319 323 325 332 334 nan nan nan nan nan nan nan nan nan nan nan nan nan nan nan nan nan nan 329 328 nan 323 324 324 321 321 318 312 nan 313 nan nan nan nan 309 306 305 304 302 302 300 297 296 295 296 nan nan nan nan nan nan nan nan nan nan nan nan nan nan nan nan
281 280 278 276 269 261 260 266 273 276 284 292 296 293 292 298 303 308 313 316 320 328 332 332 331 nan nan nan nan nan nan nan nan nan nan nan nan nan nan nan nan nan nan 326 323 323 322 322 321 319 314 312 311 311 nan nan nan 311 nan 312 310 307 305 305 304 301 297 296 296 295 294 nan nan nan nan nan nan nan nan nan nan nan nan nan nan
285 285 282 276 273 270 265 267 272 275 284 292 287 284 289 296 298 305 311 318 325 334 333 328 329 nan nan nan nan nan nan nan nan nan nan nan nan nan nan nan nan nan nan nan 324 321 321 320 320 316 314 313 312 312 312 313 315 315 nan nan 311 nan nan nan 305 305 nan 301 300 298 297 295 294 293 nan nan nan nan nan nan nan nan nan nan nan
294 290 288 284 280 280 278 276 274 273 279 279 286 301 300 295 299 302 309 318 327 332 331 330 329 nan 329 328 328 nan nan 342 345 344 nan nan nan nan nan nan nan nan nan nan 323 321 320 320 320 320 317 314 312 nan nan nan nan nan 313 311 309 305 nan nan 308 306 304 304 302 302 300 298 nan nan nan nan nan nan nan nan nan nan nan nan nan
303 296 293 295 295 286 284 282 281 272 273 273 293 297 306 309 303 306 313 318 324 328 329 332 333 331 328 325 318 328 334 338 343 346 342 nan nan nan nan nan nan nan 327 326 323 320 319 319 318 316 317 315 313 nan nan nan nan 314 312 309 nan nan nan 306 306 304 303 305 304 303 302 298 nan nan nan nan nan nan nan nan nan nan nan nan nan
306 298 299 300 294 289 285 286 278 273 272 280 291 299 306 310 310 308 309 313 318 321 326 331 334 332 325 316 312 307 310 318 333 341 342 nan nan nan nan nan nan 335 331 326 324 319 318 320 317 318 nan 318 316 nan nan nan 316 313 310 309 309 310 310 310 310 308 304 nan 302 nan nan 301 nan nan nan nan nan nan nan nan nan nan nan nan nan
308 308 309 302 294 288 288 291 289 276 265 281 291 300 305 309 315 312 305 311 313 318 324 329 333 331 322 310 300 302 314 327 332 334 334 336 nan nan nan 338 334 333 332 330 323 321 317 319 nan 318 321 nan nan nan 318 316 312 312 308 311 312 313 314 314 313 311 306 nan nan nan nan nan nan nan nan nan nan nan nan nan nan nan nan nan nan
318 319 312 306 295 289 288 290 284 273 267 274 290 296 301 308 315 311 303 309 312 316 322 325 327 328 320 312 321 332 329 324 324 328 327 329 329 330 329 324 322 325 329 328 321 318 319 320 nan nan nan nan 323 320 317 314 313 313 314 316 315 316 316 317 313 312 310 nan nan nan nan nan nan nan nan nan nan nan 297 nan nan nan nan nan nan
320 321 315 309 300 291 287 286 279 271 260 275 285 293 299 307 310 308 300 303 305 312 317 321 326 326 318 325 331 329 326 325 325 325 323 323 325 324 324 324 320 318 317 314 315 317 318 nan nan nan 319 322 321 321 316 313 315 315 316 317 316 316 315 nan nan nan nan nan nan nan nan nan nan nan nan nan nan nan nan nan nan nan nan nan nan
312 314 313 310 306 294 285 284 282 276 262 276 284 291 299 301 302 293 296 301 307 312 315 318 322 320 322 325 324 327 328 328 330 331 327 320 323 322 319 317 314 313 313 314 317 318 nan nan 321 321 319 321 320 319 nan nan nan nan nan nan nan nan nan nan nan nan nan nan nan nan nan nan nan nan nan nan nan nan nan nan nan nan nan nan nan
308 314 316 311 303 295 288 286 289 281 266 272 285 291 294 295 287 285 293 297 305 310 313 316 315 317 320 320 320 323 325 325 328 330 327 318 316 318 317 314 313 311 309 310 312 318 320 320 319 319 321 nan nan nan nan nan nan nan nan nan nan nan nan nan nan nan nan nan nan nan nan nan nan nan nan nan nan nan nan nan nan nan nan nan nan
300 306 304 301 298 292 290 288 290 284 271 268 285 287 288 288 288 287 290 297 305 308 308 306 309 314 318 321 319 320 324 326 327 327 323 317 317 318 313 nan 310 309 310 311 311 nan 310 314 317 318 nan nan nan nan nan nan nan nan nan nan nan nan nan nan nan nan nan nan nan nan nan nan nan nan nan nan nan nan nan nan nan nan nan nan nan
296 297 296 297 296 292 289 286 285 286 269 265 278 282 284 286 287 281 287 293 300 303 302 302 305 307 308 315 323 324 325 325 325 328 324 318 315 314 nan nan 309 311 314 315 313 nan 314 316 316 nan nan nan nan nan nan nan nan nan nan nan nan nan nan nan nan nan nan nan nan nan nan nan nan nan nan nan nan nan nan nan nan nan nan nan nan